Weather in Tatarskaya Bezdna

Russia / Republic of Tatarstan     54°42′01″N   47°25′37″E
temp.,
°C
wind,
m/s
gust,
m/s
humid.,
%
clouds,
%
prec.,
mm/h
press.,
hPa
HPBL,
m
27 june, mon
mon2700:00+13nw22780 0.0 101919
03:00+12wnw22780 0.0 101921
06:00+16wnw35740 0.0 1019153
09:00+21w57560 0.0 1018660
12:00+24w68540 0.0 10161030
15:00+26w7116111 0.0 10141567
18:00+23w49790 3.8 1012356
21:00+17wnw338689 5.9 101338
28 june, tue
tue2800:00+15n410963 0.1 1015269
03:00+12nne48960 0.1 1015218
06:00+12ne47850 0.0 1017371
09:00+14nne56632 0.0 10181057
12:00+17nne575223 0.0 10181906
15:00+17nne674833 0.0 10182125
18:00+15nne57615 0.0 1019998
21:00+10n227320 0.0 102018
29 june, wed
wed2900:00+9nnw34755 0.0 102050
03:00+7nnw39775 0.0 1021169
06:00+10n511707 0.0 1022545
09:00+14nne46575 0.0 1021969
12:00+17n674897 0.0 10201758
15:00+18n574818 0.0 10191748
18:00+17nnw48582 0.0 1018420
21:00+12wnw33680 0.0 101842
30 june, thu
thu3000:00+10wnw3479100 0.0 101752
03:00+9wnw4985100 0.0 1016154
06:00+13wnw4107499 0.0 1015284
09:00+18nw6105099 0.0 10131444
12:00+19n794325 0.0 10132005
15:00+19n8114995 0.0 10122371
18:00+15nne496672 0.0 1013506
21:00+11nne347423 0.0 101555
1 july, fri
fri100:00+9n3677100 0.0 1016139
03:00+7n377691 0.0 1017128
06:00+10n4107021 0.0 1018432
09:00+15nne58550 0.0 10181244
12:00+18n575239 0.0 10181794
15:00+19n67475 0.0 10171950
18:00+18nnw475790 0.0 1017382
21:00+13nw34675 0.0 101854